This demonstration page uses our WeatherBlox Daily Observations layout. Learn more.

Left ArrowRight Arrow

39.92423, -83.80882

Hourly Observations for May 17, 2021

Temp ( °F °C ) Dew Point ( °F °C ) Humidity (%) Winds ( mph kmh ) Pressure ( in mb ) Visibility ( mi km ) Precip ( " mm )
12:56 am 00:56 Clear 53 11.7 53 11.7 100 100 ESE 3 6 30.21 1023 10 16.0934 N/A
1:56 am 01:56 Clear 54 12.2 53 11.7 97 97 ESE 3 6 30.2 1023 10 16.0934 N/A
2:56 am 02:56 Clear 56 13.3 52 11.1 87 87 SE 5 7 30.19 1022 10 16.0934 N/A
3:56 am 03:56 Clear 53 11.7 53 11.7 100 100 E 5 7 30.17 1022 10 16.0934 N/A
4:56 am 04:56 Mostly Clear 55 12.8 53 11.7 93 93 E 3 6 30.19 1022 10 16.0934 N/A
5:56 am 05:56 Partly Cloudy 54 12.2 54 12.2 100 100 E 5 7 30.2 1023 10 16.0934 N/A
6:56 am 06:56 Cloudy 55 12.8 55 12.8 100 100 ENE 6 9 30.22 1023 10 16.0934 N/A
7:56 am 07:56 Cloudy with Light Rain 55 12.8 55 12.8 100 100 N N/A 30.25 1024 5 8.0467 0.03 0.762
8:56 am 08:56 Cloudy with Light Rain 55 13 N/A N/A SE 7 11 30.26 1025 8 12.87472 0.12 3.048
9:56 am 09:56 Cloudy with Light Rain 57 13.9 57 13.9 100 100 SSE 15 24 30.25 1024 10 16.0934 0.07 1.778
10:56 am 10:56 Cloudy with Light Rain 59 15 58 14.4 96 96 SSE 10 17 30.25 1025 10 16.0934 0.03 0.762
11:56 am 11:56 Cloudy with Light Rain 58 14.4 58 14.4 100 100 SSE 10 17 30.27 1025 10 16.0934 0.02 0.508
12:51 pm 12:51 Cloudy with Light Rain 59 15 59 15 100 100 SSE 10 17 30.25 1024 10 16.0934 0.01 0.254
12:56 pm 12:56 Cloudy with Light Rain 59 15 59 15 100 100 SSE 10 17 30.27 1025 10 16.0934 0.02 0.508
1:05 pm 13:05 Cloudy with Light Rain 57 14 57 14 100 100 SSE 12 19 30.26 1025 10 16.0934 0.001 0.001
1:42 pm 13:42 Cloudy with Light Rain 59 15 59 15 100 100 ESE 8 13 30.26 1025 10 16.0934 0.01 0.254
1:56 pm 13:56 Mostly Cloudy with Light Rain 59 15 N/A N/A undefined N/A 30.27 1025 10 16.0934 0.02 0.508
2:09 pm 14:09 Cloudy with Light Rain 59 15 N/A N/A ESE 6 9 30.26 1025 10 16.0934 0.001 0.001
2:17 pm 14:17 Cloudy with Light Rain 59 15 N/A N/A SE 8 13 30.26 1025 10 16.0934 0.01 0.254
2:56 pm 14:56 Cloudy with Light Rain 59 15 N/A N/A SE 7 11 30.27 1025 10 16.0934 0.02 0.508
3:19 pm 15:19 Cloudy 59 15 59 15 100 100 SE 9 15 30.25 1024 10 16.0934 0.001 0.001
3:49 pm 15:49 Cloudy with Light Rain 59 15 N/A N/A SE 7 11 30.25 1024 10 16.0934 0.001 0.001
3:56 pm 15:56 Cloudy with Light Rain 59 15 N/A N/A SE 9 15 30.26 1025 10 16.0934 0.001 0.001
4:09 pm 16:09 Cloudy with Light Rain 59 15 N/A N/A SE 6 9 30.25 1024 10 16.0934 0.01 0.254
4:19 pm 16:19 Cloudy with Light Rain 59 15 N/A N/A SE 7 11 30.25 1024 10 16.0934 0.01 0.254
4:29 pm 16:29 Cloudy with Light Rain 59 15 N/A N/A SE 8 13 30.25 1024 10 16.0934 0.02 0.508
4:46 pm 16:46 Cloudy with Light Rain 59 15 N/A N/A ESE 7 11 30.25 1024 10 16.0934 0.02 0.508
4:56 pm 16:56 Cloudy with Light Rain 59 15 N/A N/A ESE 8 13 30.26 1025 10 16.0934 0.02 0.508
5:15 pm 17:15 Cloudy with Light Rain 59 15 N/A N/A E 9 15 30.25 1024 10 16.0934 0.01 0.254
5:24 pm 17:24 Cloudy with Light Rain 59 15 N/A N/A ESE 8 13 30.25 1024 10 16.0934 0.02 0.508
5:33 pm 17:33 Cloudy with Light Rain 59 15 N/A N/A E 7 11 30.25 1024 10 16.0934 0.02 0.508
5:42 pm 17:42 Cloudy with Light Rain 59 15 N/A N/A ESE 8 13 30.25 1024 10 16.0934 0.02 0.508
5:56 pm 17:56 Cloudy with Light Rain 59 15 N/A N/A E 8 13 30.27 1025 10 16.0934 0.03 0.762
6:56 pm 18:56 Cloudy with Light Rain 59 15 N/A N/A E 8 13 30.26 1025 10 16.0934 0.02 0.508
7:56 pm 19:56 Cloudy 57 14 N/A N/A ESE 7 11 30.26 1025 10 16.0934 0.001 0.001
8:56 pm 20:56 Mostly Cloudy 57 14 N/A N/A ESE 6 9 30.25 1025 10 16.0934 N/A
9:56 pm 21:56 Clear 57 14 N/A N/A ESE 6 9 30.27 1025 9 14.48406 N/A
10:56 pm 22:56 Cloudy 57 14 N/A N/A ESE 8 13 30.27 1025 10 16.0934 N/A
11:56 pm 23:56 Cloudy 57 14 N/A N/A ESE 8 13 30.27 1025 10 16.0934 N/A

Powered by AerisWeather